Weather History for KRSN - December, 2013

Change the Weather History Date:

Friday, December 20, 2013

  Actual Average Record
Temperature  
Mean Temperature 67 °F -  
Max Temperature 71 °F 58 °F 78 °F (2001)
Min Temperature 63 °F 36 °F -5 °F (2006)
Cooling Degree Days 2    
Growing Degree Days 17 (Base 50)    
Moisture  
Dew Point 64 °F    
Average Humidity 89    
Maximum Humidity 98    
Minimum Humidity 80    
Precipitation  
Precipitation 0.06 in - - ()
Sea Level Pressure  
Sea Level Pressure 29.93 in    
Wind  
Wind Speed 7 mph (SSE)    
Max Wind Speed 17 mph    
Max Gust Speed 25 mph    
Visibility 10 miles    
Events Rain    
Averages and records for this station are not official NWS values.
T = Trace of Precipitation, MM = Missing Value Source: NWS Daily Summary

Daily Weather History Graph

Daily Weather History Graph

Search for Another Location

Airport or City:

Trip Planner

Search our weather history database for the weather conditions in past years. The results will help you decide how hot, cold, wet, or windy it might be!

Date:

Astronomy

Dec. 20, 2013 Rise Set
Actual Time 7:07 AM CST 5:08 PM CST
Civil Twilight 6:40 AM CST 5:35 PM CST
Nautical Twilight 6:09 AM CST 6:06 PM CST
Astronomical Twilight 5:39 AM CST 6:36 PM CST
Moon 8:20 PM CST (12/20) 9:10 AM CST (12/20)
Length of Visible Light 10h 55m
Length of Day
10h 00m
Waning Gibbous, 90% of the Moon is Illuminated
Dec 20
Waning Gibbous
Dec 25
Last Quarter
Jan 1
New
Jan 7
First Quarter
Jan 15
Full

Hourly Weather History & Observations

Time (CST) Temp. Dew Point Humidity Pressure Visibility Wind Dir Wind Speed Gust Speed Precip Events Conditions
12:15 AM 63.0 °F 57.9 °F 84% 29.97 in 10.0 mi South 6.9 mph - N/A   Overcast
12:35 AM 63.3 °F 58.3 °F 84% 29.97 in 10.0 mi SSW 5.8 mph - N/A   Overcast
12:55 AM 63.5 °F 58.6 °F 84% 29.97 in 10.0 mi South 8.1 mph - N/A   Overcast
1:15 AM 63.5 °F 59.0 °F 85% 29.96 in 10.0 mi SSE 8.1 mph - N/A   Overcast
1:35 AM 63.5 °F 59.0 °F 85% 29.96 in 10.0 mi South 6.9 mph - N/A   Overcast
1:55 AM 63.5 °F 59.0 °F 85% 29.96 in 10.0 mi South 8.1 mph - N/A   Overcast
2:15 AM 63.5 °F 59.2 °F 86% 29.95 in 10.0 mi South 8.1 mph - N/A   Overcast
2:35 AM 63.5 °F 59.4 °F 86% 29.95 in 10.0 mi SSE 9.2 mph - N/A   Overcast
2:55 AM 63.9 °F 59.9 °F 87% 29.96 in 10.0 mi South 5.8 mph - N/A   Overcast
3:15 AM 63.9 °F 59.9 °F 87% 29.96 in 10.0 mi South 4.6 mph - N/A   Overcast
3:35 AM 64.0 °F 60.3 °F 87% 29.96 in 10.0 mi South 4.6 mph - N/A   Overcast
3:55 AM 64.0 °F 60.4 °F 88% 29.96 in 10.0 mi South 6.9 mph - N/A   Overcast
4:15 AM 64.4 °F 60.8 °F 88% 29.96 in 10.0 mi SSE 3.5 mph - N/A   Overcast
4:35 AM 64.6 °F 61.2 °F 89% 29.96 in 10.0 mi SSE 4.6 mph - N/A   Overcast
4:55 AM 64.6 °F 61.5 °F 90% 29.95 in 10.0 mi SSE 6.9 mph - N/A   Overcast
5:15 AM 64.8 °F 61.7 °F 90% 29.95 in 10.0 mi South 6.9 mph - N/A   Overcast
5:35 AM 64.9 °F 61.7 °F 89% 29.95 in 10.0 mi SSE 5.8 mph - N/A   Overcast
5:55 AM 64.8 °F 61.7 °F 90% 29.94 in 10.0 mi SSE 6.9 mph - N/A   Overcast
6:15 AM 64.9 °F 62.1 °F 90% 29.94 in 10.0 mi SSE 9.2 mph - N/A   Overcast
6:35 AM 65.3 °F 62.4 °F 90% 29.94 in 10.0 mi South 8.1 mph - N/A   Overcast
6:55 AM 65.7 °F 62.6 °F 90% 29.95 in 10.0 mi South 9.2 mph - N/A   Overcast
7:15 AM 66.6 °F 63.1 °F 89% 29.96 in 10.0 mi South 8.1 mph - N/A   Overcast
7:35 AM 67.1 °F 63.5 °F 88% 29.96 in 10.0 mi South 10.4 mph - N/A   Overcast
7:55 AM 67.3 °F 63.5 °F 88% 29.96 in 10.0 mi South 9.2 mph 18.4 mph N/A   Overcast
8:15 AM 67.3 °F 63.5 °F 88% 29.97 in 10.0 mi South 9.2 mph - N/A   Overcast
8:35 AM 68.0 °F 63.7 °F 86% 29.98 in 10.0 mi South 9.2 mph - N/A   Overcast
8:55 AM 67.8 °F 63.7 °F 87% 29.98 in 10.0 mi South 6.9 mph - N/A   Overcast
9:15 AM 67.5 °F 63.7 °F 88% 29.99 in 10.0 mi SSE 5.8 mph - N/A   Overcast
9:35 AM 67.5 °F 63.7 °F 88% 29.99 in 10.0 mi SSE 4.6 mph - N/A   Overcast
9:55 AM 68.9 °F 64.2 °F 85% 30.00 in 10.0 mi SSE 6.9 mph - N/A   Overcast
10:15 AM 69.3 °F 64.4 °F 84% 30.01 in 10.0 mi South 5.8 mph - N/A   Overcast
10:35 AM 69.4 °F 64.4 °F 84% 30.01 in 10.0 mi Calm Calm - N/A   Overcast
10:55 AM 70.7 °F 64.4 °F 80% 30.00 in 10.0 mi Calm Calm - N/A   Overcast
11:15 AM 69.8 °F 64.4 °F 83% 30.00 in 10.0 mi Calm Calm - N/A   Overcast
11:35 AM 70.5 °F 64.8 °F 82% 29.98 in 10.0 mi ESE 3.5 mph - N/A   Overcast
11:55 AM 70.0 °F 64.6 °F 83% 29.98 in 10.0 mi Calm Calm - N/A   Overcast
12:15 PM 70.2 °F 64.9 °F 83% 29.96 in 10.0 mi SE 4.6 mph - N/A   Overcast
12:35 PM 69.8 °F 65.5 °F 86% 29.96 in 10.0 mi SSE 3.5 mph - N/A Rain Light Rain
12:55 PM 70.2 °F 66.2 °F 87% 29.95 in 10.0 mi SE 5.8 mph - N/A   Overcast
1:15 PM 70.7 °F 66.2 °F 86% 29.94 in 10.0 mi SSE 5.8 mph - N/A Rain Light Rain
1:35 PM 71.6 °F 66.4 °F 84% 29.93 in 10.0 mi SSE 5.8 mph - N/A Rain Rain
1:55 PM 71.4 °F 65.8 °F 82% 29.92 in 10.0 mi SSE 9.2 mph - N/A Rain Light Rain
2:15 PM 70.7 °F 66.2 °F 86% 29.92 in 10.0 mi SSE 5.8 mph - N/A   Mostly Cloudy
2:35 PM 70.7 °F 66.4 °F 86% 29.91 in 10.0 mi SSE 5.8 mph - N/A   Overcast
2:55 PM 70.7 °F 66.2 °F 86% 29.91 in 10.0 mi SE 6.9 mph - N/A   Mostly Cloudy
3:15 PM 70.0 °F 66.2 °F 88% 29.91 in 10.0 mi SSE 5.8 mph - N/A   Mostly Cloudy
3:35 PM 69.8 °F 66.6 °F 89% 29.91 in 10.0 mi South 4.6 mph - N/A   Mostly Cloudy
3:55 PM 69.6 °F 66.6 °F 90% 29.90 in 7.0 mi SE 3.5 mph - N/A Rain Rain
4:15 PM 69.3 °F 67.1 °F 93% 29.90 in 10.0 mi SE 4.6 mph - N/A   Mostly Cloudy
4:35 PM 69.3 °F 67.1 °F 93% 29.90 in 10.0 mi Calm Calm - N/A   Mostly Cloudy
4:55 PM 68.9 °F 66.9 °F 93% 29.91 in 10.0 mi Calm Calm - N/A   Mostly Cloudy
5:15 PM 68.9 °F 67.1 °F 94% 29.90 in 10.0 mi SSE 4.6 mph - N/A   Mostly Cloudy
5:35 PM 68.7 °F 67.3 °F 95% 29.90 in 7.0 mi SSE 6.9 mph - 0.05 in   Overcast
5:55 PM 68.5 °F 67.5 °F 96% 29.90 in 10.0 mi SSE 5.8 mph - 0.05 in   Mostly Cloudy
6:15 PM 68.5 °F 68.0 °F 98% 29.90 in 10.0 mi SSE 6.9 mph - N/A   Scattered Clouds
6:35 PM 68.9 °F 68.0 °F 97% 29.90 in 10.0 mi SSE 6.9 mph - N/A   Mostly Cloudy
6:55 PM 68.9 °F 67.8 °F 96% 29.90 in 10.0 mi SSE 6.9 mph - N/A   Overcast
7:15 PM 68.9 °F 67.5 °F 95% 29.90 in 10.0 mi SSE 5.8 mph - N/A   Overcast
7:35 PM 68.5 °F 68.0 °F 98% 29.91 in 10.0 mi South 4.6 mph - N/A   Overcast
7:55 PM 68.9 °F 68.0 °F 97% 29.90 in 10.0 mi South 8.1 mph - N/A   Overcast
8:15 PM 68.9 °F 67.3 °F 95% 29.89 in 10.0 mi South 8.1 mph - N/A   Overcast
8:35 PM 68.9 °F 67.1 °F 94% 29.89 in 10.0 mi South 8.1 mph - N/A   Overcast
8:55 PM 69.1 °F 67.1 °F 93% 29.88 in 10.0 mi SSE 11.5 mph - 0.01 in   Overcast
9:15 PM 69.4 °F 67.3 °F 93% 29.88 in 10.0 mi South 12.7 mph - N/A   Overcast
9:35 PM 69.6 °F 67.3 °F 92% 29.87 in 10.0 mi South 12.7 mph 19.6 mph N/A   Overcast
9:55 PM 69.8 °F 67.3 °F 92% 29.86 in 10.0 mi South 15.0 mph 19.6 mph N/A   Overcast
10:15 PM 69.8 °F 67.5 °F 92% 29.86 in 10.0 mi South 13.8 mph 19.6 mph N/A   Overcast
10:35 PM 69.8 °F 67.5 °F 92% 29.86 in 7.0 mi South 16.1 mph 20.7 mph N/A   Overcast
10:55 PM 69.8 °F 67.5 °F 92% 29.86 in 10.0 mi South 15.0 mph 25.3 mph N/A   Overcast
11:15 PM 69.8 °F 67.5 °F 92% 29.85 in 5.0 mi South 15.0 mph 24.2 mph N/A   Overcast
11:35 PM 69.8 °F 67.6 °F 93% 29.84 in 7.0 mi South 17.3 mph 23.0 mph N/A   Light Drizzle
11:55 PM 69.8 °F 67.5 °F 92% 29.84 in 7.0 mi South 16.1 mph 23.0 mph N/A Rain Rain